Tracking 19908 objects as of 19-Oct-2019
HD Live streaming from Space Station
objects crossing your sky now

IRIDIUM 33 DEB

Track IRIDIUM 33 DEB now!
10-day predictions


NORAD ID: 37560
Int'l Code: 1997-051XV
Perigee: 698.3 km
Apogee: 832.7 km
Inclination: 86.4 °
Period: 100.0 minutes
Semi major axis: 7136 km
RCS: 0.008 m2 (small)
Launch date: September 14, 1997
Source: United States (US)
Launch site: TYURATAM MISSILE AND SPACE COMPLEX (TTMTR)

Note: This is SATELLITE DEBRIS
aabbcc
Your satellite tracking list
Your tracking list is empty




NASA's NSSDC Master Catalog

Two Line Element Set (TLE):
1 37560U 97051XV  19287.37015223  .00002712  00000-0  81099-3 0  9995
2 37560  86.3839 324.6463 0094160 220.5998 196.9082 14.40051767507050
Source of the keplerian elements: AFSPC